Wind_Speed
13 13 12 12 12 12 15 13 10 7 10 5 8 9 11 12 11 9 8 5 10 6 3 5 18 31 38 35 35 35 33 31 28 25 21 20 18 20 23 26 28 28 27 24
15 14 12 11 11 10 12 15 16 17 16 9 8 6 4 3 2 3 6 7 10 14 17 10 10 23 30 34 35 38 38 34 33 33 30 27 25 23 25 27 29 30 30 29
10 15 13 12 17 18 18 14 15 19 14 10 7 6 4 3 1 4 9 10 12 13 10 4 4 9 21 29 38 42 41 39 35 36 37 31 30 29 28 26 29 31 31 30
12 15 10 14 16 18 22 21 15 15 12 10 8 9 7 3 4 10 13 13 12 11 9 10 4 0 10 20 32 40 41 41 40 38 39 37 37 35 34 31 29 30 33 32
12 17 13 11 15 14 15 18 18 15 14 11 10 10 8 9 10 13 16 15 15 11 10 14 12 5 6 8 11 35 35 40 40 38 39 42 42 41 41 37 33 32 33 35
17 10 9 12 9 9 11 15 20 18 15 12 10 9 11 13 15 17 19 19 16 13 11 12 17 12 6 2 2 10 24 25 21 24 32 37 44 46 42 43 42 39 35 35
20 12 11 14 8 8 9 6 14 13 12 10 9 12 13 15 17 19 21 17 15 14 13 12 15 19 16 11 6 3 5 12 10 17 26 34 45 40 40 46 44 42 40 35
23 16 14 14 16 16 12 7 8 10 7 8 11 13 14 16 19 17 16 14 14 13 13 12 12 14 18 18 15 13 11 13 15 17 12 16 27 36 36 41 43 42 49 41
18 22 15 10 11 11 14 15 13 11 10 11 11 12 13 14 11 12 12 13 13 11 12 11 11 12 12 13 16 15 15 16 16 17 18 11 12 14 19 25 30 41 45 43
18 19 16 13 14 17 13 11 10 11 10 9 8 11 12 12 13 14 16 16 13 12 12 12 10 11 12 12 13 15 16 10 4 8 12 10 5 5 5 8 7 14 16 23
27 20 17 16 17 16 13 13 11 8 9 10 11 11 13 14 14 16 18 20 16 13 13 14 13 9 9 10 11 11 11 16 9 4 6 14 15 7 6 9 9 12 12 11
22 21 19 15 15 13 16 14 12 11 12 14 17 17 17 17 18 19 20 20 15 16 13 12 13 11 6 8 8 9 8 18 11 8 11 7 5 7 6 5 5 6 11 10
21 15 17 15 15 19 18 16 15 16 16 19 24 24 20 20 19 19 21 21 23 18 13 11 11 10 8 5 7 7 8 12 16 11 13 13 11 11 10 8 9 8 7 8
17 17 18 13 11 13 14 15 17 17 18 18 17 17 19 18 20 22 25 27 25 20 15 11 10 10 8 8 10 6 6 8 12 15 16 15 13 12 11 10 11 11 13 15
22 18 16 14 11 11 13 15 15 15 14 14 15 15 16 18 22 24 18 16 16 12 14 13 12 10 8 8 10 10 9 9 11 12 13 11 9 7 8 10 11 12 12 13
18 14 10 11 14 15 13 13 12 10 13 13 15 17 18 21 14 11 10 8 7 13 11 11 11 10 9 9 9 8 9 9 9 11 12 10 11 12 9 10 11 11 12 11
25 21 15 12 12 12 12 11 12 13 12 14 16 17 16 9 7 7 6 6 6 6 7 9 9 8 9 9 9 10 10 11 10 10 10 11 11 10 9 11 12 10 10 10
24 25 19 20 15 15 14 13 14 14 11 16 17 15 9 6 6 4 4 5 8 10 9 8 8 8 8 7 8 8 9 9 9 10 11 12 12 11 10 11 11 11 10 10
22 23 19 17 18 17 15 14 15 16 16 15 13 12 11 8 7 7 7 9 10 8 7 8 9 8 8 9 10 10 9 8 8 8 8 8 9 9 11 12 11 10 10 9
26 26 23 22 22 17 15 17 16 18 16 12 11 11 11 11 10 10 9 8 11 12 9 8 8 8 9 9 9 10 11 10 10 8 7 7 8 9 10 11 11 11 10 10
22 22 24 24 21 18 18 19 18 18 14 13 14 13 12 9 7 8 6 8 10 8 8 9 10 11 10 11 11 11 11 12 11 10 9 8 7 7 6 7 8 8 8 10
14 17 20 21 20 18 19 19 16 13 13 13 18 18 14 11 8 6 8 11 10 9 8 8 9 9 10 11 11 12 13 14 14 13 11 10 11 10 8 7 8 7 9 8
13 10 10 9 13 18 18 14 10 9 10 11 15 15 13 11 9 6 8 10 8 7 9 10 11 12 12 13 14 14 15 15 15 15 14 12 14 13 11 10 7 7 7 7
7 5 5 3 3 13 12 10 8 6 8 12 13 14 13 11 8 8 9 9 8 10 10 12 13 14 14 15 15 14 15 16 16 17 17 17 18 18 16 13 11 10 12 13
10 9 7 6 6 12 14 12 9 6 5 7 11 12 10 10 10 10 10 9 9 9 11 12 13 14 14 15 16 16 14 14 14 14 15 16 18 19 18 16 15 13 12 12
12 16 14 12 12 14 16 13 10 10 9 7 4 4 5 6 7 7 6 7 9 10 12 14 16 17 17 16 15 17 17 17 17 17 16 16 18 19 19 18 17 15 17 18
12 17 17 18 15 12 14 12 10 9 12 10 9 9 7 6 6 8 7 7 7 9 11 10 12 13 14 15 16 15 18 20 20 20 20 21 20 19 20 22 21 21 21 21
Wind_Direction
233 253 242 209 215 232 227 232 235 266 266 288 294 287 264 272 298 286 308 288 284 291 262 358 231 221 227 227 221 225 231 235 234 234 226 231 238 244 242 239 237 235 238 241
227 233 218 218 219 227 228 240 249 260 266 265 270 272 259 292 345 312 302 287 283 282 284 285 254 231 228 233 229 225 229 233 235 234 237 234 239 247 252 251 246 242 241 240
209 214 214 234 233 242 247 246 263 263 261 249 248 218 195 202 43 348 333 296 289 278 283 254 11 333 247 239 230 227 229 231 233 238 235 237 241 248 253 257 254 247 243 244
201 204 224 245 254 252 248 244 255 249 225 235 226 201 219 233 330 350 348 342 313 297 261 247 273 213 304 244 235 229 224 226 229 234 234 241 247 250 251 258 261 255 248 244
197 211 244 258 243 242 259 251 238 217 219 223 211 202 236 261 289 317 330 332 335 301 275 240 250 292 329 319 248 225 230 232 236 239 242 242 249 250 252 254 255 260 253 248
202 213 228 270 254 250 247 250 230 226 214 212 209 229 257 267 291 307 317 318 316 310 297 262 243 247 256 317 140 185 231 232 243 253 248 246 246 246 247 251 252 258 255 251
218 221 243 247 221 208 193 246 207 198 193 196 225 243 257 271 288 300 304 305 305 282 299 279 261 241 241 246 240 225 234 248 276 288 261 256 237 239 245 241 247 250 253 254
220 220 242 232 211 213 219 212 177 183 211 230 240 255 265 278 287 293 295 308 307 301 287 275 264 259 244 239 244 246 258 267 269 296 313 258 245 244 245 243 242 246 240 234
226 234 240 226 239 229 228 232 236 252 244 245 256 249 269 274 282 291 312 322 317 297 289 283 266 252 247 244 249 255 256 268 276 304 317 273 255 249 246 244 242 240 245 240
249 243 232 230 219 221 226 228 233 243 253 246 257 293 303 300 308 309 310 315 310 313 286 279 277 253 246 248 250 256 258 260 187 51 51 92 119 108 159 229 228 229 236 234
230 249 239 234 214 215 230 244 253 242 247 264 275 284 290 296 296 293 297 308 302 307 298 275 267 264 247 242 246 250 251 186 155 191 161 108 98 102 106 95 102 99 79 106
216 229 239 233 215 232 228 223 228 239 247 251 258 266 267 270 272 276 286 293 291 291 295 275 271 257 250 239 241 240 239 207 174 177 177 184 206 208 190 173 216 223 192 203
215 211 218 219 222 224 222 227 240 253 265 267 259 254 249 252 258 268 279 283 289 276 269 259 257 248 237 244 240 217 214 214 224 218 233 247 226 225 224 217 208 206 208 221
188 205 210 195 204 217 233 247 261 275 277 267 256 248 246 253 257 269 277 280 270 264 257 252 245 238 223 237 249 233 213 214 212 215 230 239 240 236 234 225 226 230 226 229
169 174 187 204 217 242 260 273 286 274 266 247 242 244 250 259 270 278 276 276 254 241 233 235 235 229 228 220 226 239 240 234 230 220 215 218 229 215 230 216 215 220 220 225
175 190 199 213 228 231 256 289 292 262 265 256 248 252 260 275 263 249 240 341 225 231 234 229 227 228 234 237 238 233 235 232 219 212 215 220 214 232 228 236 229 222 218 218
217 217 216 216 226 231 245 280 303 313 270 252 254 263 271 254 238 238 254 254 229 218 238 234 228 235 242 243 236 230 220 221 213 208 205 209 210 206 210 211 219 209 216 222
210 220 216 223 226 224 237 264 282 298 271 256 261 268 242 233 230 237 256 259 234 229 232 241 239 240 245 246 240 233 230 222 214 210 208 208 206 202 205 209 214 220 220 220
217 210 224 235 221 234 235 258 274 287 288 272 257 233 236 241 252 259 261 254 246 234 212 217 221 228 232 230 226 225 225 220 213 211 215 221 223 218 212 212 208 207 207 211
225 227 226 222 220 237 243 257 270 284 276 256 222 226 232 253 264 274 271 244 231 231 222 214 216 217 214 213 213 210 212 210 205 205 206 206 211 214 212 215 217 214 209 215
225 221 218 217 228 234 242 258 271 274 256 237 215 227 247 252 264 274 261 251 242 230 223 222 221 220 216 208 207 206 204 203 194 189 189 201 215 210 211 216 218 205 198 202
199 207 213 222 221 236 244 254 261 258 241 237 219 233 251 261 266 247 240 247 240 208 200 204 212 213 213 213 210 206 206 203 198 201 208 220 215 214 216 217 218 217 212 213
149 166 182 210 235 242 238 232 252 251 231 226 226 237 249 260 268 240 225 241 231 214 199 197 208 218 224 220 218 218 220 221 217 215 217 223 216 208 207 224 234 252 262 262
182 192 207 219 237 213 214 236 256 245 228 221 228 239 248 250 235 228 247 258 243 208 203 211 216 222 221 225 223 224 227 229 231 233 233 228 221 216 213 214 232 249 256 258
228 237 241 238 234 217 219 242 252 239 218 225 233 243 238 225 227 234 243 240 236 238 236 227 227 233 236 227 221 218 221 225 229 232 237 234 226 218 224 235 239 245 249 265
252 235 228 232 237 220 222 233 236 233 233 245 229 231 226 229 227 229 239 242 243 235 230 237 245 245 243 239 232 226 227 227 230 231 229 224 225 231 236 236 238 251 264 271
254 226 226 222 236 230 218 230 249 246 230 228 239 250 247 248 256 267 260 255 246 237 231 233 239 236 235 234 232 235 231 229 232 235 234 235 239 243 246 246 249 256 264 271
Height
3148 3148 3148 3149 3150 3151 3152 3154 3155 3154 3153 3153 3152 3151 3151 3151 3151 3151 3151 3150 3150 3150 3148 3146 3149 3154 3159 3162 3166 3170 3173 3176 3179 3182 3183 3184 3186 3188 3189 3190 3192 3194 3196 3197
3145 3145 3146 3147 3147 3148 3149 3149 3150 3150 3149 3149 3149 3148 3149 3149 3149 3149 3149 3148 3147 3146 3144 3142 3142 3146 3148 3152 3156 3161 3165 3169 3172 3175 3178 3180 3181 3182 3184 3185 3186 3187 3189 3192
3142 3143 3144 3146 3144 3144 3144 3145 3145 3145 3146 3146 3146 3146 3147 3147 3148 3148 3147 3146 3144 3143 3142 3140 3136 3141 3142 3143 3145 3150 3154 3159 3164 3167 3170 3173 3175 3177 3179 3180 3181 3183 3185 3186
3138 3140 3141 3140 3138 3139 3138 3139 3140 3140 3141 3142 3143 3144 3145 3146 3145 3145 3144 3143 3141 3139 3139 3138 3137 3136 3137 3136 3138 3141 3146 3150 3154 3159 3162 3165 3168 3170 3172 3174 3175 3177 3178 3180
3132 3134 3134 3134 3133 3134 3133 3134 3135 3137 3138 3138 3140 3142 3143 3143 3143 3142 3141 3140 3138 3136 3135 3135 3136 3134 3134 3132 3129 3134 3140 3144 3147 3150 3153 3156 3159 3162 3164 3166 3168 3170 3172 3174
3127 3130 3130 3129 3129 3129 3129 3129 3130 3132 3134 3136 3138 3139 3140 3140 3140 3139 3137 3136 3135 3134 3132 3131 3132 3134 3134 3133 3130 3128 3133 3136 3139 3142 3143 3144 3148 3151 3153 3157 3160 3162 3164 3166
3122 3124 3124 3125 3125 3126 3128 3130 3126 3129 3132 3134 3136 3137 3138 3137 3136 3135 3134 3132 3131 3129 3129 3127 3127 3129 3131 3132 3131 3129 3130 3132 3132 3136 3132 3131 3134 3136 3141 3145 3148 3152 3157 3161
3117 3119 3121 3120 3122 3124 3125 3125 3126 3128 3130 3132 3133 3134 3134 3133 3132 3130 3129 3127 3126 3125 3124 3124 3123 3123 3125 3127 3129 3129 3128 3129 3130 3128 3125 3124 3125 3128 3130 3135 3138 3140 3146 3150
3112 3112 3114 3116 3118 3120 3121 3123 3125 3127 3128 3129 3129 3130 3129 3128 3127 3126 3125 3124 3122 3121 3121 3120 3119 3119 3120 3122 3124 3125 3126 3125 3125 3123 3120 3118 3118 3120 3123 3125 3128 3131 3134 3138
3109 3108 3110 3112 3115 3116 3118 3120 3122 3124 3124 3125 3126 3124 3124 3124 3123 3122 3120 3119 3119 3118 3117 3116 3116 3115 3117 3117 3119 3120 3122 3122 3123 3121 3119 3117 3116 3116 3119 3120 3121 3125 3130 3133
3102 3104 3106 3108 3111 3113 3115 3117 3118 3119 3120 3121 3120 3120 3120 3119 3118 3117 3116 3115 3114 3113 3112 3112 3113 3113 3113 3114 3116 3117 3118 3120 3120 3120 3121 3121 3120 3120 3122 3123 3125 3125 3128 3132
3095 3100 3104 3105 3108 3110 3111 3113 3114 3115 3115 3116 3116 3115 3114 3114 3114 3113 3112 3111 3111 3110 3108 3108 3109 3111 3110 3110 3112 3114 3114 3116 3117 3119 3120 3122 3123 3123 3124 3125 3126 3127 3129 3133
3093 3096 3098 3101 3103 3105 3107 3109 3109 3110 3110 3109 3108 3108 3108 3107 3108 3108 3106 3105 3105 3106 3106 3105 3106 3107 3107 3107 3109 3110 3111 3113 3115 3116 3119 3121 3121 3122 3122 3124 3126 3128 3130 3132
3088 3091 3094 3097 3099 3101 3103 3104 3104 3104 3103 3102 3102 3102 3102 3102 3102 3101 3100 3099 3097 3099 3101 3102 3102 3103 3104 3105 3108 3109 3110 3111 3113 3114 3116 3117 3118 3119 3121 3123 3125 3126 3127 3129
3082 3084 3088 3092 3094 3096 3097 3098 3097 3097 3096 3097 3097 3097 3097 3096 3096 3096 3093 3092 3092 3094 3095 3097 3098 3099 3100 3101 3104 3106 3107 3109 3111 3112 3112 3113 3115 3116 3118 3120 3122 3124 3125 3127
3077 3081 3084 3087 3090 3091 3093 3093 3093 3092 3092 3092 3091 3091 3091 3091 3090 3090 3089 3088 3086 3090 3093 3094 3095 3096 3097 3099 3101 3102 3103 3105 3107 3108 3109 3110 3112 3114 3115 3117 3120 3121 3122 3124
3072 3078 3080 3083 3086 3088 3090 3090 3090 3089 3088 3087 3087 3087 3086 3086 3086 3087 3087 3086 3087 3088 3090 3092 3092 3093 3095 3096 3097 3100 3102 3104 3104 3105 3107 3108 3108 3111 3113 3115 3117 3118 3119 3121
3068 3072 3074 3078 3081 3083 3085 3086 3085 3084 3083 3083 3082 3082 3083 3084 3084 3084 3084 3085 3085 3086 3087 3089 3090 3092 3093 3094 3095 3097 3099 3101 3102 3103 3104 3106 3108 3108 3111 3113 3115 3115 3117 3119
3062 3066 3069 3072 3076 3078 3079 3080 3080 3079 3078 3077 3078 3079 3080 3081 3082 3082 3082 3082 3082 3083 3084 3086 3087 3089 3091 3092 3094 3095 3096 3098 3100 3102 3102 3105 3107 3107 3108 3111 3112 3114 3115 3116
3056 3060 3063 3067 3070 3073 3075 3075 3075 3074 3073 3073 3074 3077 3078 3078 3078 3078 3077 3077 3078 3079 3080 3081 3084 3086 3088 3089 3091 3093 3094 3096 3098 3099 3100 3102 3104 3105 3105 3107 3110 3112 3113 3114
3050 3054 3058 3063 3066 3069 3070 3070 3070 3070 3069 3070 3072 3074 3074 3074 3074 3074 3073 3073 3074 3074 3076 3078 3080 3082 3084 3086 3088 3090 3092 3094 3096 3097 3099 3101 3102 3103 3104 3105 3108 3110 3110 3111
3047 3051 3054 3059 3062 3065 3066 3066 3066 3065 3066 3067 3068 3069 3071 3071 3071 3071 3071 3071 3071 3072 3074 3076 3078 3080 3082 3084 3086 3088 3090 3092 3094 3096 3098 3100 3101 3102 3103 3105 3106 3107 3108 3109
3047 3051 3053 3056 3058 3060 3061 3062 3062 3061 3062 3063 3065 3066 3067 3067 3068 3068 3068 3069 3070 3070 3072 3074 3076 3078 3080 3081 3083 3085 3087 3089 3091 3093 3095 3097 3098 3100 3101 3103 3105 3106 3106 3106
3047 3049 3051 3053 3054 3056 3057 3058 3059 3059 3059 3060 3062 3063 3064 3064 3065 3065 3065 3066 3067 3068 3069 3071 3073 3075 3077 3078 3080 3082 3084 3086 3087 3088 3090 3092 3094 3096 3098 3099 3101 3102 3102 3102
3046 3047 3049 3051 3052 3054 3055 3055 3056 3056 3057 3058 3059 3060 3060 3061 3062 3063 3063 3064 3065 3065 3067 3068 3069 3071 3073 3075 3076 3078 3080 3082 3083 3084 3085 3087 3089 3091 3093 3094 3095 3096 3097 3098
3041 3043 3045 3047 3049 3050 3052 3053 3054 3054 3055 3056 3058 3058 3059 3060 3060 3061 3061 3061 3062 3063 3064 3065 3067 3068 3069 3071 3072 3074 3076 3077 3079 3080 3082 3083 3084 3086 3087 3088 3089 3090 3091 3092
3036 3038 3041 3043 3045 3047 3049 3051 3051 3052 3053 3055 3056 3057 3057 3058 3058 3059 3059 3060 3061 3061 3062 3063 3064 3064 3065 3067 3068 3069 3071 3072 3074 3076 3077 3078 3079 3080 3081 3082 3082 3083 3084 3084